Wind_Speed
21 24 26 31 37 37 39 42 40 39 39 39 38 54 53 50 48 46 36 32 32 37 39 34 30 27 24 21 18 20 21 24 24 25 23 23 20 18 28 28 31 29 30
21 24 26 29 32 36 37 43 45 44 44 44 43 41 51 53 51 47 39 33 33 39 41 36 32 29 26 24 21 20 22 25 27 27 26 26 28 26 20 26 33 28 26
24 29 33 35 35 37 35 37 42 45 46 44 44 40 43 51 54 49 42 39 38 36 38 38 35 32 29 26 24 21 23 25 26 25 31 29 32 28 28 27 22 24 25
28 35 39 36 32 31 33 34 36 42 44 45 41 42 39 43 52 51 47 46 44 41 43 46 37 34 31 28 25 23 24 25 29 27 31 30 29 29 28 27 29 27 30
34 38 42 45 32 30 37 35 32 32 37 47 43 40 40 41 44 49 46 42 42 41 45 55 37 32 33 28 25 24 25 27 30 30 29 28 33 30 33 31 28 26 34
35 38 43 40 32 28 21 22 28 33 35 41 42 40 38 36 38 43 44 39 40 36 40 48 40 37 32 29 25 25 25 26 29 30 30 31 29 30 31 29 29 27 33
30 40 39 32 29 25 22 25 25 29 34 35 38 38 41 35 33 37 40 41 40 27 17 22 34 31 31 27 26 25 26 27 30 30 29 28 30 29 30 30 30 30 28
31 33 35 31 29 22 21 22 20 22 28 30 32 37 35 31 36 37 37 38 36 39 34 27 26 30 28 28 25 26 24 28 32 31 31 30 31 31 32 32 29 30 34
32 29 30 32 34 17 15 14 15 19 23 26 29 32 33 31 32 37 37 37 39 37 27 32 28 32 30 26 25 25 23 25 33 32 32 32 32 30 27 27 29 27 38
33 30 31 30 32 20 12 12 10 15 19 27 27 29 28 31 34 39 38 36 39 42 32 28 31 31 29 26 25 24 23 25 27 31 34 34 35 35 32 33 30 32 36
33 32 33 28 29 21 16 14 9 13 18 20 22 23 27 30 33 37 39 38 40 39 25 30 32 30 28 25 26 23 21 23 27 31 33 34 34 34 37 36 32 33 27
28 29 33 29 25 20 14 13 16 12 14 18 21 18 21 17 25 28 30 34 34 35 32 31 32 29 27 26 24 21 21 25 31 32 32 33 37 35 41 40 33 33 29
22 34 32 27 23 18 15 11 10 8 13 18 16 21 19 23 20 25 24 25 26 34 26 29 31 30 27 22 22 22 22 27 30 32 31 34 39 40 37 37 34 29 34
26 30 27 24 22 16 15 17 6 10 15 18 23 17 17 19 19 26 27 29 32 42 32 32 31 29 23 22 22 20 22 24 20 14 22 24 20 30 28 25 31 32 37
19 17 20 21 20 18 13 14 15 13 14 15 25 28 25 23 34 38 37 39 37 38 35 32 30 28 23 21 19 19 18 17 15 17 19 21 19 21 24 24 27 38 30
16 18 18 16 16 16 12 12 13 14 16 12 12 18 22 23 22 32 31 31 35 33 32 31 28 25 21 18 18 17 17 18 18 16 17 16 21 14 23 17 26 22 37
17 15 16 12 11 12 14 11 12 8 11 10 9 14 19 17 18 21 31 33 31 31 28 29 27 26 21 17 16 16 17 19 18 13 8 8 18 16 18 18 20 26 27
12 11 11 8 9 11 14 13 12 11 9 11 17 12 8 10 12 14 28 43 37 30 27 26 26 24 18 16 15 16 15 18 16 15 9 8 6 13 15 15 31 29 26
8 9 8 7 8 11 11 12 14 14 12 6 4 7 10 13 14 10 25 30 34 27 27 25 22 19 17 16 15 16 15 18 18 16 16 13 14 8 13 24 22 24 34
4 7 5 8 11 11 12 14 14 16 14 9 9 7 5 5 6 10 18 28 25 25 25 18 18 17 15 14 14 19 20 20 18 21 17 19 21 17 18 23 27 25 26
2 3 7 9 10 12 13 14 16 13 15 15 16 14 10 8 3 5 9 16 18 22 27 23 23 19 20 20 20 18 19 20 25 25 22 27 20 21 20 23 27 27 25
5 5 7 8 10 11 12 13 13 15 16 16 17 17 14 11 9 5 1 3 6 13 16 16 22 24 26 26 27 23 26 25 23 27 31 31 31 28 27 30 29 31 29
8 8 8 9 10 11 12 13 13 14 14 15 15 15 15 14 13 12 9 6 4 4 5 8 13 14 16 19 19 26 29 31 30 30 32 28 31 35 35 33 39 44 42
13 12 12 12 12 11 12 12 13 13 13 13 13 13 13 13 12 10 10 9 7 5 3 2 5 7 8 10 12 14 16 18 21 21 25 29 31 36 35 38 43 44 38
13 13 13 12 12 12 13 13 13 13 13 13 13 12 11 10 10 9 8 6 5 5 4 3 1 2 4 6 8 9 10 11 13 15 17 18 19 19 21 22 23 24 24
11 11 11 12 13 13 12 12 11 11 11 12 12 12 13 12 11 10 9 8 7 5 4 4 4 4 4 4 4 5 6 7 7 8 10 11 12 13 14 14 15 15 16
Wind_Direction
285 285 281 278 278 277 267 253 243 239 242 246 247 235 233 233 237 243 241 237 239 235 235 237 238 244 254 261 265 256 248 246 235 239 234 231 238 221 215 220 212 211 217
307 305 298 289 281 273 275 258 244 237 239 242 247 247 235 233 235 236 237 239 237 232 237 236 238 242 249 255 266 261 254 251 237 242 232 232 228 236 231 220 221 223 229
319 317 314 302 294 277 267 261 251 237 236 240 246 250 240 231 231 231 236 235 233 232 240 234 238 241 248 254 265 264 260 253 249 244 234 233 230 231 232 225 234 241 235
325 324 326 318 298 273 264 264 256 244 237 238 243 244 240 236 235 232 232 238 235 237 235 226 232 238 245 251 261 265 264 252 244 242 241 229 241 240 237 237 234 239 229
333 328 331 327 309 291 273 256 248 245 240 238 242 239 240 238 236 235 238 233 240 244 241 243 232 236 241 249 260 267 265 251 240 239 238 236 241 245 237 241 241 251 241
332 331 330 323 315 302 272 258 248 248 233 231 235 232 235 237 232 230 229 234 242 248 257 249 211 223 238 247 260 267 263 247 239 238 240 236 237 246 242 251 251 256 237
333 331 331 323 323 297 276 268 256 235 230 227 227 225 229 233 222 226 229 234 238 222 210 200 220 228 238 248 259 267 259 242 236 235 236 237 241 239 242 251 254 254 252
330 332 329 333 323 306 277 270 257 235 222 225 225 220 224 222 220 223 224 229 234 231 239 238 235 232 240 249 262 266 253 243 234 234 237 238 237 241 242 250 256 256 256
331 331 332 334 333 308 298 269 255 228 224 222 220 218 219 223 224 219 226 223 219 229 235 236 235 232 240 251 264 264 255 240 241 238 240 242 237 236 240 251 255 258 254
332 321 333 328 334 321 310 259 246 235 227 228 219 217 227 233 235 230 225 222 218 228 230 233 226 231 243 253 264 259 250 247 243 240 242 242 241 238 244 255 253 261 254
330 331 329 327 330 328 310 298 264 244 231 219 217 221 229 237 234 226 218 224 228 238 224 229 228 233 243 254 258 254 251 249 245 245 245 247 249 247 256 254 253 256 252
327 325 326 325 328 327 320 278 245 254 231 217 220 214 222 221 217 212 217 228 229 236 239 225 228 234 241 252 255 253 253 254 251 246 251 251 252 245 252 259 242 250 232
321 334 317 324 330 327 285 328 266 232 231 225 228 232 221 215 217 219 206 220 234 222 232 229 231 234 240 250 252 252 256 260 252 248 254 258 266 253 250 245 243 239 233
316 317 312 321 325 325 307 296 298 260 219 223 241 238 239 239 238 231 237 246 241 223 235 235 229 231 238 245 247 255 262 263 249 252 260 262 252 242 237 234 235 228 214
311 308 302 315 328 331 314 300 302 286 243 232 235 240 241 264 254 252 243 240 228 212 226 227 224 230 233 238 247 253 262 247 236 253 265 268 233 238 223 241 229 209 227
290 312 306 316 328 339 330 325 297 294 291 277 263 229 234 246 262 247 243 204 219 218 224 222 222 226 228 227 239 257 261 245 235 254 274 271 231 235 218 224 227 248 221
295 298 299 307 327 351 5 339 344 278 300 314 310 257 241 273 257 246 225 215 200 213 214 215 213 220 221 224 236 249 251 240 234 250 279 303 235 239 238 229 235 219 227
303 303 315 320 334 353 9 14 5 356 320 302 290 304 244 282 282 253 214 197 198 200 206 209 212 215 213 222 232 251 259 231 224 232 246 257 277 226 243 235 235 244 225
308 314 321 343 359 6 11 22 27 21 12 1 355 316 292 286 276 278 190 207 185 191 205 211 214 214 224 226 226 236 236 230 226 229 238 247 261 250 208 221 232 226 220
324 338 355 44 36 27 27 34 30 25 18 26 41 37 5 320 302 240 189 194 186 191 194 212 221 227 233 236 233 234 234 238 236 227 223 238 242 241 233 242 236 248 245
41 37 51 51 38 33 30 29 30 22 30 33 37 35 24 15 2 264 297 249 224 208 208 208 218 231 239 242 242 243 238 245 243 238 235 239 245 241 241 238 237 239 239
91 69 48 38 37 37 34 32 21 27 28 29 29 29 33 30 26 12 349 270 252 241 242 229 222 234 228 232 230 241 247 259 255 251 242 242 239 243 252 244 249 237 247
72 60 50 44 39 34 33 28 27 27 24 24 16 15 18 22 27 26 21 9 327 300 273 243 240 231 241 243 244 239 238 238 237 239 245 250 244 240 243 245 242 240 242
65 58 52 41 34 29 27 26 24 22 22 17 16 14 13 19 20 24 25 24 11 0 10 261 249 250 238 239 242 245 246 249 250 245 243 243 242 244 245 240 245 245 238
56 48 43 41 37 32 30 26 22 17 12 8 5 2 3 2 6 10 13 12 2 355 353 343 309 235 251 256 252 244 241 241 241 241 239 236 234 234 234 235 234 233 235
45 44 41 31 22 20 19 16 13 12 9 4 358 351 347 342 339 338 335 336 331 326 320 306 295 287 267 249 255 259 256 253 252 253 254 250 243 237 235 234 239 239 237
Height
3048 3047 3046 3044 3041 3040 3040 3042 3044 3048 3049 3051 3052 3055 3058 3065 3070 3073 3077 3078 3081 3084 3088 3092 3094 3096 3097 3098 3097 3095 3095 3095 3099 3101 3103 3104 3106 3105 3109 3110 3114 3119 3124
3041 3039 3037 3035 3034 3031 3026 3026 3030 3034 3037 3039 3042 3045 3049 3054 3059 3063 3068 3071 3074 3076 3080 3085 3087 3090 3090 3091 3091 3090 3090 3090 3092 3093 3098 3100 3103 3104 3105 3106 3111 3115 3118
3032 3030 3028 3024 3020 3016 3014 3012 3014 3019 3024 3027 3031 3034 3036 3041 3046 3053 3059 3062 3065 3067 3073 3077 3081 3083 3085 3084 3085 3085 3084 3085 3086 3087 3091 3092 3096 3098 3101 3104 3106 3110 3114
3026 3021 3015 3012 3007 3003 3002 3001 3001 3005 3011 3016 3019 3023 3028 3031 3037 3043 3048 3053 3055 3059 3064 3068 3072 3075 3078 3078 3078 3077 3077 3078 3079 3080 3084 3087 3091 3093 3097 3100 3104 3106 3108
3019 3014 3008 3001 2994 2991 2990 2991 2991 2994 2999 3004 3010 3015 3019 3024 3027 3033 3039 3044 3047 3051 3055 3049 3053 3065 3069 3071 3071 3070 3070 3071 3073 3074 3078 3081 3084 3087 3090 3094 3099 3101 3102
3015 3009 3002 2994 2988 2983 2982 2982 2983 2986 2988 2993 3000 3005 3011 3014 3017 3023 3029 3035 3040 3044 3040 3040 3053 3057 3060 3064 3064 3064 3063 3064 3066 3068 3071 3074 3078 3081 3084 3089 3091 3094 3093
3008 3003 2997 2991 2985 2979 2978 2976 2976 2977 2980 2985 2990 2996 3002 3005 3010 3015 3021 3027 3032 3036 3039 3042 3045 3048 3054 3057 3057 3056 3057 3057 3060 3062 3064 3068 3072 3075 3079 3081 3083 3085 3088
3005 2999 2994 2988 2981 2975 2973 2971 2971 2971 2974 2978 2983 2988 2995 2998 3002 3006 3012 3020 3026 3031 3033 3037 3040 3043 3047 3049 3049 3049 3049 3051 3053 3055 3059 3062 3066 3069 3072 3074 3076 3077 3078
3001 2997 2992 2985 2977 2972 2969 2968 2967 2968 2971 2974 2978 2983 2989 2992 2996 2999 3002 3010 3016 3021 3026 3030 3033 3037 3040 3041 3042 3042 3042 3044 3047 3048 3052 3055 3059 3062 3064 3066 3069 3070 3070
2998 2994 2989 2983 2976 2969 2966 2966 2965 2965 2968 2970 2974 2977 2982 2986 2989 2992 2996 3001 3007 3010 3014 3021 3026 3029 3032 3034 3035 3035 3036 3037 3039 3042 3045 3049 3051 3054 3056 3058 3059 3061 3062
2992 2988 2985 2981 2974 2968 2965 2961 2962 2963 2963 2966 2969 2971 2975 2978 2980 2984 2989 2994 2999 3003 3004 3013 3018 3022 3026 3028 3029 3029 3029 3030 3033 3036 3038 3040 3042 3044 3046 3048 3051 3052 3052
2989 2983 2981 2977 2972 2967 2963 2961 2960 2960 2960 2961 2964 2966 2969 2972 2975 2979 2984 2989 2993 3000 3004 3006 3011 3015 3019 3022 3022 3021 3023 3025 3027 3029 3030 3031 3033 3033 3036 3038 3039 3043 3046
2987 2982 2980 2974 2970 2965 2961 2958 2957 2956 2957 2958 2961 2964 2966 2969 2972 2974 2979 2984 2987 2993 2996 3000 3005 3009 3013 3014 3015 3016 3017 3018 3019 3020 3020 3020 3021 3022 3025 3029 3032 3035 3040
2984 2980 2978 2973 2967 2962 2958 2954 2953 2953 2953 2954 2957 2958 2962 2966 2968 2970 2974 2977 2980 2986 2990 2994 2999 3003 3005 3007 3009 3010 3011 3011 3011 3012 3013 3011 3009 3012 3015 3020 3023 3028 3034
2979 2977 2975 2971 2965 2960 2957 2953 2951 2950 2948 2947 2951 2953 2956 2958 2959 2963 2967 2969 2975 2979 2984 2988 2993 2997 2999 3001 3004 3004 3005 3006 3006 3007 3007 3004 3006 3007 3010 3013 3016 3021 3025
2975 2975 2972 2968 2963 2958 2954 2951 2948 2946 2946 2945 2944 2947 2950 2953 2951 2952 2955 2954 2965 2972 2976 2982 2986 2990 2993 2994 2996 2998 2999 2999 3001 3001 3000 2997 3000 3001 3004 3008 3011 3015 3020
2972 2971 2969 2965 2961 2957 2953 2950 2947 2945 2944 2944 2942 2944 2944 2945 2945 2946 2948 2950 2950 2965 2971 2974 2978 2983 2987 2988 2989 2992 2994 2995 2996 2996 2995 2996 2995 2996 3000 3003 3007 3011 3016
2969 2968 2966 2963 2960 2957 2954 2951 2948 2946 2944 2943 2942 2943 2943 2942 2942 2940 2942 2948 2950 2957 2965 2968 2972 2976 2979 2983 2984 2986 2989 2990 2992 2992 2993 2993 2993 2994 2995 2998 3003 3007 3010
2967 2966 2964 2961 2959 2957 2954 2952 2950 2948 2945 2943 2942 2942 2942 2941 2940 2939 2942 2944 2947 2948 2957 2962 2967 2971 2974 2976 2979 2981 2983 2985 2988 2989 2989 2990 2992 2994 2995 2999 3001 3003 3008
2966 2965 2964 2961 2959 2957 2955 2953 2952 2949 2947 2944 2943 2942 2942 2941 2940 2939 2940 2942 2943 2945 2953 2958 2962 2965 2968 2971 2973 2975 2978 2979 2982 2984 2985 2986 2988 2990 2993 2996 2997 2999 3002
2965 2965 2964 2962 2960 2958 2956 2955 2953 2952 2948 2946 2944 2943 2942 2941 2942 2942 2942 2941 2943 2944 2948 2952 2956 2959 2963 2966 2968 2970 2971 2972 2974 2977 2979 2981 2982 2985 2987 2989 2991 2993 2995
2966 2966 2965 2963 2961 2960 2958 2956 2955 2953 2950 2948 2947 2946 2945 2944 2942 2943 2942 2943 2944 2945 2944 2948 2950 2954 2956 2959 2960 2961 2963 2965 2967 2969 2970 2972 2975 2978 2980 2982 2984 2985 2987
2967 2967 2966 2965 2963 2961 2960 2958 2956 2955 2953 2952 2950 2948 2947 2946 2945 2944 2944 2945 2945 2945 2945 2945 2947 2950 2951 2952 2951 2953 2955 2957 2959 2960 2963 2965 2967 2969 2971 2973 2974 2976 2977
2968 2968 2968 2967 2965 2964 2962 2960 2959 2957 2956 2955 2954 2952 2950 2948 2948 2948 2947 2946 2946 2946 2946 2947 2948 2948 2947 2947 2948 2948 2949 2951 2952 2953 2955 2956 2958 2960 2961 2963 2964 2966 2966
2970 2969 2969 2968 2968 2966 2964 2963 2962 2960 2959 2957 2956 2955 2954 2952 2951 2950 2949 2949 2949 2949 2948 2947 2947 2947 2946 2946 2946 2946 2946 2947 2949 2950 2951 2952 2953 2954 2954 2956 2958 2959 2961
2970 2970 2970 2969 2967 2966 2966 2965 2963 2962 2960 2959 2958 2956 2954 2953 2953 2952 2950 2949 2948 2948 2947 2948 2948 2947 2946 2945 2946 2945 2946 2946 2947 2948 2949 2950 2950 2951 2951 2950 2952 2954 2954